GLOBALSTAR FM15 [+] (52888 NORAD) Tracking and Keplerian Element Data

This shows tracking and keplerian element data for the satellite.

Feedback or suggestion? Click here.




ElementValue
Catalog52888
NameGLOBALSTAR FM15 [+]
Epoch Orbit1033
Epoch Day247.66443617
Epoch Year2022
RAAN320.1251
Inclination51.9798
Eccentricity0.0010256
Argument of Perigee149.9695
Mean Anonmoly210.1806
Mean Motion13.37540885
Decay Rate-1.28E-06
L11 52888U 22064A 22247.66443617 -.00000128 00000+0 00000+0 0 9999
L22 52888 51.9798 320.1251 0010256 149.9695 210.1806 13.37540885 10332

Live tracking and technical data element details for GLOBALSTAR FM15 [+] (NORAD 52888). GLOBALSTAR FM15 [+] can be tracked NOW for your location showing map with azimuth and elevation plus other details from your city location.

Track the satellite on the map from your city or location and see movement details for azimuth, elevation, latitude, longitude, range, height, and movement on the map or in text.







IsCatalogInMostPopularTable: catalog: 52888, numindb: 6
Update: records affected: 1



GetName: 52888 GLOBALSTAR FM15 [+]

Hit Count: updated at: Sun, 25 Sep 2022 07:50:42 GMT